#timestamp,LO_Frequency,Hit,StdDev 
1460221215.4,286046995.3,N
1460221235.3,286046995.1,N
1460221255.1,286046997.9,N
1460221275.8,286046997.5,N
1460221295.7,286046998.3,N
1460221315.5,286046999.2,N
1460221335.3,286046997.2,N
1460221355.2,286046997.5,N
1460221375.9,286046996.0,N
1460221395.7,286046994.9,N
1460221415.6,286046996.6,N
1460221435.4,286046993.7,Y
1460221455.2,286046996.7,P
1460221475.1,286046996.2,P
1460221476.0,286046996.2,P
1460221495.8,286046998.0,Y
1460221515.6,286047001.2,P
1460221535.5,286046999.5,N
1460221555.3,286047001.2,N
1460221575.1,286046998.1,N
1460221595.9,286046998.6,N
1460221615.7,286046998.7,N
1460221635.5,286047000.7,N
1460221655.4,286047000.3,N
1460221675.2,286047000.4,N
1460221695.0,286047000.6,N
1460221695.9,286047000.6,N
1460221715.7,286047001.0,N
1460221735.6,286046999.3,N
1460221755.4,286046997.5,N
1460221775.2,286046999.5,N
1460221795.1,286046997.3,N
1460221796.0,286046997.3,N
1460221815.8,286046999.3,N
1460221835.6,286046997.2,N
1460221855.5,286046997.3,N
1460221875.3,286046997.8,N
1460221895.1,286046997.2,N
1460221915.9,286046999.6,N
1460221935.7,286046997.8,N
1460221955.5,286046997.6,N
1460221975.4,286046997.9,N
1460221995.2,286046999.3,N
1460222015.0,286047000.7,N
1460222015.9,286047000.7,N
1460222035.8,286046999.2,N
1460222055.6,286047000.8,N
1460222075.4,286047000.7,N
1460222095.3,286046998.4,N
1460222115.1,286047002.8,N
1460222116.0,286047002.8,N
1460222135.8,286047003.9,N
1460222155.6,286047004.9,N
1460222175.5,286047007.0,Y
1460222195.3,286047008.9,P
1460222215.2,286047012.1,N
1460222235.9,286047009.4,N
1460222255.7,286047010.0,N
1460222275.5,286047010.6,N
1460222295.4,286047012.0,N
1460222315.2,286047008.6,N
1460222335.0,286047010.3,N
1460222335.9,286047010.3,N
1460222355.8,286047007.8,N
1460222375.6,286047010.4,Y
1460222395.4,286047004.2,P
1460222415.3,286047004.1,N
1460222435.1,286046999.8,N
1460222455.8,286046999.4,N
1460222475.7,286046996.6,N
1460222495.5,286046995.5,N
1460222515.3,286046994.9,N
1460222535.2,286046992.3,N
1460222555.9,286046990.1,N
1460222575.7,286046990.7,N
1460222595.6,286046989.9,N
1460222615.4,286046987.5,N
1460222635.2,286046986.4,N
1460222655.0,286046985.0,N
1460222656.0,286046985.0,N
1460222675.8,286046985.1,N
1460222695.6,286046984.4,N
1460222715.4,286046984.2,N
1460222735.3,286046986.5,N
1460222755.1,286046986.8,N
1460222775.8,286046985.9,N
1460222795.7,286046986.1,N
1460222815.5,286046986.0,N
1460222835.3,286046985.4,N
1460222855.2,286046987.8,N
1460222875.9,286046987.2,N
1460222895.7,286046987.6,N
1460222915.6,286046987.1,N
1460222935.4,286046987.3,N
1460222955.2,286046988.7,N
1460222975.0,286046988.5,N
1460222976.0,286046988.5,N
1460222995.8,286046988.9,N
1460223015.6,286046988.8,Y
1460223035.5,286047001.0,P
1460223055.3,286046998.1,N
1460223075.1,286046998.4,N
1460223095.8,286047000.8,N
1460223115.7,286046998.2,N
1460223135.5,286046999.3,N
1460223155.3,286046999.1,N
1460223175.2,286046999.0,N
1460223195.9,286047000.8,N
1460223215.7,286046998.6,N
1460223235.6,286047000.2,N
1460223255.4,286047002.3,N
1460223275.2,286047002.3,N
1460223295.1,286047002.3,N
1460223296.0,286047002.3,N
1460223315.8,286047001.9,N
1460223335.6,286047005.6,N
1460223355.5,286047005.6,N
1460223375.3,286047005.4,N
1460223395.1,286047003.1,N
1460223415.8,286047003.2,N
1460223435.7,286047005.1,N
1460223455.5,286047009.2,N
1460223475.3,286047007.2,N
1460223495.2,286047004.6,N
1460223515.9,286047003.0,N
1460223535.7,286047004.2,N
1460223555.6,286047001.5,N
1460223575.4,286047001.5,N
1460223595.2,286047005.4,N
1460223615.1,286047003.4,N
1460223616.0,286047003.4,N
1460223635.8,286047003.8,N
1460223655.6,286047002.9,N
1460223675.5,286047003.2,N
1460223695.3,286047003.0,N
1460223715.1,286047003.2,N
1460223735.9,286047005.4,N
1460223755.7,286047005.2,N
1460223775.5,286047003.5,N
1460223795.3,286047005.3,N
1460223815.2,286047003.4,N
1460223835.0,286047003.1,N
1460223835.9,286047003.1,N
1460223855.7,286047004.3,N
1460223875.6,286047005.1,Y
1460223895.4,286047002.8,P
1460223915.2,286046999.8,N
1460223935.1,286046999.7,N
1460223936.0,286046999.7,N
1460223955.8,286047000.3,N
1460223975.6,286046998.2,N
1460223995.5,286047003.9,N
1460224015.3,286047001.5,N
1460224035.1,286047000.1,N
1460224055.9,286046999.9,N
1460224075.7,286047001.9,N
1460224095.5,286047002.7,N
1460224115.4,286047002.5,N
1460224135.2,286046998.1,N
1460224155.0,286046998.8,N
1460224155.9,286046998.8,N
1460224175.8,286046999.7,N
1460224195.6,286047000.8,N
1460224215.4,286047000.4,N
1460224235.2,286047002.0,N
1460224255.1,286047001.9,N
1460224256.0,286047001.9,N
1460224275.8,286047004.3,N
1460224295.6,286047001.6,N
1460224315.5,286047001.3,N
1460224335.3,286047001.6,N
1460224355.1,286047002.8,N
1460224375.9,286047000.5,N
1460224395.7,286047000.2,N
1460224415.5,286046998.5,N
1460224435.4,286047000.4,N
1460224455.2,286047000.1,N
1460224475.0,286047001.1,N
1460224475.9,286047001.1,N
1460224495.8,286047000.4,N
1460224515.6,286047001.7,N
1460224535.4,286047003.9,N
1460224555.3,286047002.2,N
1460224575.1,286047007.4,Y
1460224576.0,286047007.4,P
1460224595.8,286047004.9,N
1460224615.7,286047006.9,N
1460224635.5,286047009.0,Y
1460224655.3,286047002.1,P
1460224675.2,286047002.2,N
1460224695.9,286047001.4,N
1460224715.7,286047005.3,Y
1460224735.6,286047003.9,P
1460224755.4,286047002.9,P
1460224775.2,286047004.5,P
1460224795.1,286047005.2,Y
1460224796.0,286047005.2,P
